Voltar ao catálogo

ATLAS 5 CENTAUR DEB

AtivoHEO
NORAD 47245·DEBRIS·🇺🇸 United States

Lançado Oct 17, 2018 de Cape Canaveral Space Force Station

Loading…

Próximas Passagens (próximas 24 horas)

TLE

AtualizadoSource: Space-Track

Época: Sep 7, 2026, 03:59 UTC

1 47245U 18079EF  26250.16617596 -.00000151  00000-0  00000-0 0  9991
2 47245  13.4068  13.7730 4929724  17.6521 354.5939  1.87228658 39474

Acompanhe ATLAS 5 CENTAUR DEB em tempo real com AllMySat

Download on the App Store